Flag for U.S.A. Weather past 2 weeks in Irving, Texas, U.S.A.

Now
66 °F

Overcast.


Feels Like: 66 °F
Forecast: 68 / 78 °F
Wind: 5 mph from East

Location: Dallas / Fort Worth International Airport

Current Time: May 22, 2015 at 8:54:02 PM

Latest Report: May 22, 2015 at 7:53 PM


Visibility: 10 mi

Pressure: 30.06 "Hg

Humidity: 90%

Dew point: 63 °F

Location of IrvingLocation

Historic Weather in Irving — Graph

°F

Irving temperature yesterday

Maximum temperature yesterday: 65 °F (at 5:53 PM)
Minimum temperature yesterday: 55 °F (at 6:58 AM)
Average temperature yesterday: 60 °F

Past Weeks' High & Low Weather Summary

 TemperatureHumidityPressure
High88 °F (May 18, 3:53 PM)100% (May 7, 11:53 PM)30.24 "Hg (May 7, 11:53 PM)
Low55 °F (May 21, 6:58 AM)50% (May 18, 3:53 PM)29.70 "Hg (May 16, 6:53 PM)
Average70 °F85%29.97 "Hg
* Reported May 7 7:53 PM — May 22 7:53 PM, Irving, Weather by CustomWeather, © 2015

Note: Actual official high and low records may vary slightly from our data, if they occured in-between our weather recording intervals... More about our weather records

Advertising

Irving weather history for previous 24 hours

 ConditionsComfort  
Time TempWeatherWind HumidityBarometerVisibility
7:53 PM
Fri, May 22
66 °FOvercast.5 mph90%30.06 "Hg10 mi
6:53 PM67 °FOvercast.5 mph87%30.06 "Hg10 mi
5:53 PM67 °FMostly cloudy.7 mph85%30.07 "Hg10 mi
4:53 PM67 °FMostly cloudy.7 mph85%30.08 "Hg10 mi
3:53 PM65 °FMostly cloudy.7 mph87%30.10 "Hg10 mi
2:53 PM62 °FMostly cloudy.7 mph93%30.11 "Hg10 mi
1:53 PM59 °FMostly cloudy.No wind96%30.11 "Hg9 mi
12:53 PM62 °FMostly cloudy.8 mph78%30.11 "Hg10 mi
11:53 AM61 °FOvercast.8 mph75%30.14 "Hg10 mi
10:53 AM60 °FOvercast.14 mph78%30.14 "Hg10 mi
9:53 AM59 °FMostly cloudy.13 mph87%30.14 "Hg10 mi
8:53 AM59 °FMostly cloudy.12 mph96%30.14 "Hg10 mi
7:53 AM59 °FDrizzle. Fog.13 mph96%30.14 "Hg6 mi
6:53 AM59 °FDrizzle. Low clouds.9 mph96%30.14 "Hg7 mi
5:53 AM60 °FOvercast.9 mph93%30.12 "Hg10 mi
4:53 AM60 °FLow clouds.10 mph93%30.11 "Hg10 mi
3:53 AM60 °FOvercast.10 mph96%30.11 "Hg10 mi
2:53 AM61 °FOvercast.9 mph90%30.11 "Hg10 mi
1:53 AM61 °FOvercast.8 mph90%30.11 "Hg10 mi
12:53 AM62 °FOvercast.5 mph86%30.11 "Hg10 mi
11:53 PM
Thu, May 21
62 °FOvercast.6 mph86%30.13 "Hg10 mi
10:53 PM63 °FOvercast.6 mph81%30.14 "Hg10 mi
9:53 PM63 °FMostly cloudy.5 mph81%30.14 "Hg10 mi
8:53 PM63 °FMostly cloudy.No wind84%30.13 "Hg10 mi
Weather by CustomWeather, © 2015

See weather overviewHow to use our weather pages